Location: Falconara Alta
(43.6167°N, 13.4000°E)
Time: 15:29:12
(UTC+00:00)

Cosmos 1959 Rocket - Pass Details

Date: 09 April 2020
Orbit: 946 x 998 km, 82.9° (Epoch: 27 May)

Event Time Altitude Azimuth Distance (km) Brightness Sun altitude
Rises 19:41:11 0° 353° (N) 3,712 8.1 -20.4°
Reaches altitude 10° 19:43:45 10° 355° (N) 2,753 7.4 -20.8°
Maximum altitude 19:50:04 75° 81° (E) 1,014 4.4 -21.7°
Enters shadow 19:52:38 38° 158° (SSE) 1,454 5.0 -22.1°
